This demonstration page uses our WeatherBlox Daily Observations layout. Learn more.

Left ArrowRight Arrow

Hourly Observations for February 4, 2017

Temp ( °F °C ) Dew Point ( °F °C ) Humidity (%) Winds ( mph kmh ) Pressure ( in mb ) Visibility ( mi km ) Precip ( " mm )
12:53 am 00:53 Cloudy 16 -8.9 13 -10.6 88 88 N 5 7 29.94 1014 10 16 0.00 0.00
1:50 am 01:50 Cloudy with Light Snow 16 -9 10 -12 79 79 NNW 6 9 30.00 1016 3 5 0.00 0.00
1:53 am 01:53 Cloudy with Light Snow 15 -9.4 10 -12.2 80 80 NNW 6 9 29.95 1014 3 5 0.00 0.03
2:50 am 02:50 Cloudy with Light Snow 16 -9 10 -12 79 79 NNW 5 7 30.06 1018 2 3 0.00 0.00
2:53 am 02:53 Cloudy with Light Snow 15 -9.4 10 -12.2 80 80 NNW 3 6 29.97 1015 2 2 0.01 0.25
3:12 am 03:12 Cloudy with Light Snow 14 -10 10 -12 85 85 NNW 5 7 30.06 1018 3 4 0.00 0.00
3:23 am 03:23 Cloudy with Light Snow 14 -10 11 -11.7 88 88 NW 5 7 30.06 1018 4 6 0.01 0.25
3:38 am 03:38 Cloudy with Light Snow 14 -10 10 -12 85 85 NW 6 9 30.06 1018 3 4 0.00 0.00
3:53 am 03:53 Cloudy with Light Snow 14 -10 11 -11.7 88 88 NW 7 11 29.98 1015 3 4 0.01 0.25
4:01 am 04:01 Cloudy with Light Snow 14 -10 11 -11.7 88 88 NNW 6 9 30.06 1018 4 6 0.01 0.25
4:34 am 04:34 Cloudy with Light Snow 14 -10 10 -12 85 85 NNW 7 11 30.06 1018 2 3 0.00 0.00
4:51 am 04:51 Cloudy with Light Snow 14 -10 10 -12 85 85 NW 7 11 30.09 1019 3 5 0.01 0.25
4:52 am 04:52 Cloudy with Light Snow 14 -10 11 -11.7 88 88 NW 6 9 29.99 1016 3 5 0.01 0.25
5:11 am 05:11 Cloudy with Light Snow 13 -10.6 10 -12.2 88 88 NW 8 13 30.09 1019 3 4 0.00 0.03
5:15 am 05:15 Cloudy with Light Snow 13 -10.6 10 -12.2 88 88 NW 8 13 30.09 1019 3 5 0.00 0.03
5:25 am 05:25 Cloudy with Light Snow 13 -10.6 10 -12.2 88 88 NW 8 13 30.09 1019 3 5 0.00 0.03
5:36 am 05:36 Cloudy with Light Snow 13 -10.6 10 -12.2 88 88 NW 10 17 30.09 1019 3 4 0.01 0.25
5:46 am 05:46 Cloudy with Light Snow 12 -11 9 -13 85 85 NW 8 13 30.09 1019 4 6 0.00 0.00
5:53 am 05:53 Cloudy with Light Snow 13 -10.6 9 -12.8 84 84 NW 9 15 30.01 1016 5 8 0.01 0.25
6:53 am 06:53 Cloudy with Light Snow 13 -10.6 10 -12.2 88 88 NW 6 9 30.02 1017 7 11 0.00 0.03
7:23 am 07:23 Cloudy with Light Snow 13 -10.6 10 -12.2 88 88 NNW 5 7 30.12 1020 5 8 0.00 0.03
7:49 am 07:49 Cloudy with Light Snow 12 -11 10 -12 92 92 NNW 3 6 30.15 1021 3 5 0.00 0.03
7:53 am 07:53 Cloudy with Light Snow 13 -10.6 10 -12.2 88 88 NW 3 6 30.05 1018 4 6 0.00 0.03
8:53 am 08:53 Cloudy 13 -10.6 8 -13.3 81 81 NNW 3 6 30.06 1018 10 16 0.00 0.03
9:03 am 09:03 Cloudy 14 -10 9 -13 79 79 NNW 3 6 30.15 1021 10 16 0.00 0.00
9:40 am 09:40 Cloudy 12 -11 9 -13 85 85 WNW 6 9 30.18 1022 10 16 0.00 0.00
9:53 am 09:53 Cloudy 13 -10.6 9 -12.8 84 84 WNW 6 9 30.09 1019 10 16 0.00 0.00
10:04 am 10:04 Cloudy 14 -10 9 -13 79 79 NW 6 9 30.15 1021 9 14 0.00 0.00
10:31 am 10:31 Cloudy with Light Snow 14 -10 9 -12.8 80 80 NW 5 7 30.18 1022 5 8 0.00 0.03
10:41 am 10:41 Cloudy with Light Snow 14 -10 9 -12.8 80 80 NW 6 9 30.15 1021 3 5 0.00 0.03
10:51 am 10:51 Cloudy with Light Snow 14 -10 9 -13 79 79 NW 7 11 30.18 1022 3 4 0.00 0.03
10:53 am 10:53 Cloudy with Light Snow 14 -10 9 -12.8 80 80 NW 8 13 30.09 1019 3 4 0.00 0.03
11:20 am 11:20 Cloudy with Light Snow 14 -10 9 -13 79 79 WNW 9 15 30.18 1022 3 4 0.00 0.00
11:53 am 11:53 Cloudy with Light Snow 14 -10 9 -12.8 80 80 NW 9 15 30.09 1019 3 5 0.00 0.03
12:53 pm 12:53 Cloudy 14 -10 8 -13.3 77 77 NW 7 11 30.06 1018 8 13 0.00 0.03
1:53 pm 13:53 Cloudy 14 -10 8 -13.3 77 77 NW 3 6 30.05 1018 10 16 0.00 0.00
2:22 pm 14:22 Cloudy 16 -9 9 -13 73 73 W 5 7 30.12 1020 10 16 0.00 0.00
2:53 pm 14:53 Cloudy 15 -9.4 8 -13.3 74 74 Calm 30.04 1017 10 16 0.00 0.00
3:10 pm 15:10 Cloudy 14 -10 9 -13 79 79 Calm 30.12 1020 10 16 0.00 0.00
3:53 pm 15:53 Cloudy 14 -10 8 -13.3 77 77 WSW 5 7 30.03 1017 10 16 0.00 0.00
4:53 pm 16:53 Cloudy 14 -10 7 -13.9 73 73 WNW 3 6 30.03 1017 10 16 0.00 0.00
5:10 pm 17:10 Cloudy 14 -10 9 -13 79 79 WNW 5 7 30.12 1020 10 16 0.00 0.00
5:26 pm 17:26 Cloudy 12 -11 9 -13 85 85 W 5 7 30.15 1021 10 16 0.00 0.00
5:53 pm 17:53 Cloudy 13 -10.6 7 -13.9 77 77 Calm 30.05 1018 10 16 0.00 0.00
6:53 pm 18:53 Cloudy 13 -10.6 8 -13.3 81 81 Calm 30.04 1017 10 16 0.00 0.00
7:53 pm 19:53 Cloudy 13 -10.6 7 -13.9 77 77 Calm 30.03 1017 10 16 0.00 0.00
8:42 pm 20:42 Cloudy with Light Snow 12 -11 9 -13 85 85 Calm 30.15 1021 2 3 0.00 0.00
8:53 pm 20:53 Cloudy with Light Snow 13 -10.6 9 -12.8 84 84 Calm 30.04 1017 2 2 0.00 0.03
9:01 pm 21:01 Cloudy with Light Snow 13 -10.6 9 -12.8 84 84 Calm 30.12 1020 3 5 0.00 0.03
9:08 pm 21:08 Cloudy with Light Snow 12 -11 9 -13 85 85 N 3 6 30.15 1021 7 11 0.00 0.00
9:53 pm 21:53 Cloudy 13 -10.6 9 -12.8 84 84 ENE 3 6 30.04 1017 10 16 0.00 0.03
10:53 pm 22:53 Cloudy 13 -10.6 9 -12.8 84 84 ENE 5 7 30.03 1017 10 16 0.00 0.00
11:53 pm 23:53 Cloudy 13 -10.6 9 -12.8 84 84 ENE 6 9 30.03 1017 10 16 0.00 0.00

Powered by AerisWeather